Lancaster, OH

11:55 PM EDT on June 25, 2017 (GMT -0400)
Fairfield County

Weather History for KLHQ - August, 2012

Change the Weather History Date:

Friday, August 24, 2012

  Actual Average Record
Temperature  
Mean Temperature 70 °F -  
Max Temperature 90 °F 81 °F 95 °F (2007)
Min Temperature 51 °F 57 °F 42 °F (1971)
Cooling Degree Days 5    
Growing Degree Days 20 (Base 50)    
Moisture  
Dew Point 53 °F    
Average Humidity 73    
Maximum Humidity 94    
Minimum Humidity 29    
Precipitation  
Precipitation 0.00 in - - ()
Sea Level Pressure  
Sea Level Pressure 30.12 in    
Wind  
Wind Speed 1 mph (SSE)    
Max Wind Speed 10 mph    
Max Gust Speed -    
Visibility 6 miles    
Events Fog    
Averages and records for this station are not official NWS values.
T = Trace of Precipitation, MM = Missing Value Source: NWS Daily Summary

Daily Weather History Graph

Daily Weather History Graph

Search for Another Location

Airport or City:

Trip Planner

Search our weather history database for the weather conditions in past years. The results will help you decide how hot, cold, wet, or windy it might be!

Date:

Astronomy

Aug. 24, 2012 Rise Set
Actual Time 6:51 AM EDT 8:13 PM EDT
Civil Twilight 6:23 AM EDT 8:41 PM EDT
Nautical Twilight 5:49 AM EDT 9:15 PM EDT
Astronomical Twilight 5:14 AM EDT 9:50 PM EDT
Moon 2:42 PM EDT (8/24) No Moon Set
Length of Visible Light 14h 17m
Length of Day
13h 21m
Waxing Crescent, 51% of the Moon is Illuminated
Aug 24
Waxing Crescent
Aug 31
Full
Sep 8
Last Quarter
Sep 15
New
Sep 22
First Quarter

Hourly Weather History & Observations

Time (EDT) Temp. Heat Index Dew Point Humidity Pressure Visibility Wind Dir Wind Speed Gust Speed Precip Events Conditions
12:53 AM 57.9 °F - 54.0 °F 87% 30.12 in 8.0 mi Calm Calm - N/A   Clear
1:53 AM 57.9 °F - 54.0 °F 87% 30.12 in 6.0 mi Calm Calm - N/A   Clear
2:53 AM 55.0 °F - 52.0 °F 89% 30.12 in 6.0 mi Calm Calm - N/A   Clear
3:53 AM 54.0 °F - 52.0 °F 93% 30.12 in 4.0 mi Calm Calm - N/A   Clear
4:34 AM 53.6 °F - 51.8 °F 94% 30.12 in 2.5 mi Calm Calm - N/A   Clear
4:43 AM 53.6 °F - 51.8 °F 94% 30.12 in 3.0 mi Calm Calm - N/A   Clear
4:53 AM 53.1 °F - 51.1 °F 93% 30.11 in 2.5 mi Calm Calm - N/A   Clear
5:01 AM 53.6 °F - 51.8 °F 94% 30.13 in 1.8 mi Calm Calm - N/A   Clear
5:09 AM 53.6 °F - 51.8 °F 94% 30.13 in 2.5 mi Calm Calm - N/A   Clear
5:18 AM 53.6 °F - 50.0 °F 88% 30.13 in 3.0 mi Calm Calm - N/A   Clear
5:46 AM 53.6 °F - 50.0 °F 88% 30.13 in 2.0 mi Calm Calm - N/A   Clear
5:49 AM 53.6 °F - 50.0 °F 88% 30.13 in 1.0 mi Calm Calm - N/A   Clear
5:53 AM 52.0 °F - 50.0 °F 93% 30.12 in 0.5 mi Calm Calm - N/A Fog Fog
6:01 AM 51.8 °F - 50.0 °F 94% 30.13 in 0.2 mi Calm Calm - N/A Fog Fog
6:22 AM 51.8 °F - 50.0 °F 94% 30.14 in 1.2 mi Calm Calm - N/A   Partly Cloudy
6:25 AM 53.6 °F - 50.0 °F 88% 30.14 in 3.0 mi Calm Calm - N/A   Partly Cloudy
6:53 AM 53.1 °F - 51.1 °F 93% 30.14 in 3.0 mi Calm Calm - N/A   Clear
7:00 AM 53.6 °F - 51.8 °F 94% 30.15 in 2.5 mi Calm Calm - N/A   Clear
7:18 AM 53.6 °F - 51.8 °F 94% 30.16 in 2.0 mi Calm Calm - N/A   Clear
7:40 AM 55.4 °F - 53.6 °F 94% 30.16 in 2.5 mi Calm Calm - N/A   Clear
7:53 AM 57.9 °F - 55.0 °F 90% 30.15 in 3.0 mi Calm Calm - N/A   Clear
8:53 AM 66.0 °F - 57.9 °F 75% 30.16 in 6.0 mi Calm Calm - N/A   Haze
9:53 AM 73.0 °F - 57.9 °F 59% 30.16 in 8.0 mi SE 3.5 mph - N/A   Clear
10:53 AM 79.0 °F - 60.1 °F 52% 30.15 in 10.0 mi South 3.5 mph - N/A   Clear
11:53 AM 84.9 °F 83.7 °F 55.9 °F 37% 30.14 in 10.0 mi SSW 3.5 mph - N/A   Clear
12:53 PM 86.0 °F - 52.0 °F 31% 30.13 in 10.0 mi Calm Calm - N/A   Clear
1:53 PM 87.1 °F - 52.0 °F 30% 30.10 in 10.0 mi Calm Calm - N/A   Partly Cloudy
2:53 PM 87.1 °F 84.9 °F 53.1 °F 31% 30.10 in 10.0 mi WSW 5.8 mph - N/A   Partly Cloudy
3:53 PM 89.1 °F 86.7 °F 53.1 °F 29% 30.07 in 10.0 mi SSE 10.4 mph - N/A   Mostly Cloudy
4:53 PM 89.1 °F 86.7 °F 53.1 °F 29% 30.06 in 10.0 mi SSE 6.9 mph - N/A   Partly Cloudy
5:53 PM 88.0 °F 85.9 °F 54.0 °F 31% 30.06 in 10.0 mi South 4.6 mph - N/A   Clear
6:53 PM 87.1 °F 85.3 °F 55.0 °F 33% 30.06 in 10.0 mi ESE 5.8 mph - N/A   Clear
7:53 PM 82.0 °F 81.6 °F 55.9 °F 41% 30.07 in 10.0 mi East 5.8 mph - N/A   Clear
8:53 PM 72.0 °F - 57.0 °F 59% 30.08 in 10.0 mi Calm Calm - N/A   Clear
9:53 PM 69.1 °F - 57.9 °F 68% 30.09 in 10.0 mi Calm Calm - N/A   Clear
10:53 PM 64.9 °F - 57.0 °F 75% 30.10 in 10.0 mi Calm Calm - N/A   Clear
11:53 PM 62.1 °F - 55.9 °F 80% 30.09 in 9.0 mi Calm Calm - N/A   Clear